STARLINK BD (44286 NORAD) Tracking and Keplerian Element Data

This shows tracking and keplerian element data for the satellite.

Feedback or suggestion? Click here.




ElementValue
Catalog44286
NameSTARLINK BD
Epoch Orbit385
Epoch Day173.87555982
Epoch Year2019
RAAN38.1911
Inclination53.0036
Eccentricity0.0001217
Argument of Perigee80.4592
Mean Anonmoly279.6533
Mean Motion15.05295585
Decay Rate1.746E-05
L11 44286U 19029BD 19173.87555982 .00001746 00000-0 13996-3 0 9994
L22 44286 53.0036 38.1911 0001217 80.4592 279.6533 15.05295585 3851

Live tracking and technical data element details for STARLINK BD (NORAD 44286). STARLINK BD can be tracked NOW for your location showing map with azimuth and elevation plus other details from your city location.

Track the satellite on the map from your city or location and see movement details for azimuth, elevation, latitude, longitude, range, height, and movement on the map or in text.







IsCatalogInMostPopularTable: catalog: 44286, numindb: 33
Update: records affected: 1



GetName: 44286 STARLINK BD

Hit Count: updated at: Sat, 20 Jul 2019 22:32:26 GMT